BEIDOU-3 M15

Last updated on May 15, 2019, 3:07 a.m. UTC

1 43647U 18078A   19134.16977692 -.00000101  00000-0  10000-3 0  9990
2 43647  55.0959  29.3855 0007948 336.0614 343.3633  1.86232995  3915
UTC
Height (km)
Latitude
Longitude
Inclination
Orbital Period
UTC large
Height (km)
Speed (km/s)
/
Latitude / Longitude
Inclination (degrees)
Orbital Period (minutes)
Azimuth
Elevation
Range (km)
Doppler Factor
iOS Compass Heading
iOS Angle

Next 30 passes for location: Hong Kong

Rise time Rise Azimuth (degrees) Set time Set Azimuth (degrees) Duration Max altitude (degrees)

No matching passes for this satellites